Weather History for Wiesbaden, Germany

Change the Weather History Date:

Thursday, February 7, 2013

  Actual Average (EDDF) Record (EDDF)
Temperature  
Mean Temperature 36 °F -  
Max Temperature 40 °F 44 °F 57 °F (2001)
Min Temperature 32 °F 32 °F 5 °F (2012)
Degree Days  
Heating Degree Days 29    
Moisture  
Dew Point 31 °F    
Average Humidity 88    
Maximum Humidity 100    
Minimum Humidity 61    
Precipitation  
Precipitation 0.01 in - - ()
Sea Level Pressure  
Sea Level Pressure 29.81 in    
Wind  
Wind Speed 7 mph ()    
Max Wind Speed 15 mph    
Max Gust Speed 17 mph    
Visibility 6.2 miles    
Events Rain , Snow    
Averages and records for this station are not official NWS values.
T = Trace of Precipitation, MM = Missing Value Source: Averaged Metar Reports

Daily Weather History Graph

Daily Weather History Graph

Search for Another Location

Airport:

Trip Planner

Search our weather history database for the weather conditions in past years. The results will help you decide how hot, cold, wet, or windy it might be!

Date:

Astronomy

Feb. 07, 2013 Rise Set
Actual Time 7:51 AM CET 5:31 PM CET
Civil Twilight 7:16 AM CET 6:05 PM CET
Nautical Twilight 6:38 AM CET 6:43 PM CET
Astronomical Twilight 6:00 AM CET 7:21 PM CET
Moon 5:26 AM CET (2/7) 2:27 PM CET (2/7)
Length of Visible Light 10h 48m
Length of Day
9h 40m
Waning Crescent, 11% of the Moon is Illuminated
Feb 7
Waning Crescent
Feb 10
New
Feb 17
First Quarter
Feb 25
Full
Mar 4
Last Quarter

Hourly Weather History & Observations

Time (CET) Temp. Windchill Dew Point Humidity Pressure Visibility Wind Dir Wind Speed Gust Speed Precip Events Conditions
12:58 AM 33.3 °F 27.1 °F 29.5 °F 86% 29.72 in 6.2 mi NW 6.9 mph - N/A   Overcast
1:20 AM 32.0 °F 24.8 °F 30.2 °F 93% 29.69 in 6.2 mi NW 8.1 mph - N/A   Mostly Cloudy
1:35 AM 32.0 °F 25.6 °F 30.2 °F 93% 29.69 in 6.2 mi NW 6.9 mph - N/A   Mostly Cloudy
1:41 AM 33.8 °F 26.4 °F 30.2 °F 87% 29.69 in 6.2 mi NW 9.2 mph - N/A   Overcast
1:53 AM 33.8 °F 27.7 °F 32.0 °F 93% 29.69 in 6.2 mi NW 6.9 mph - N/A   Overcast
1:56 AM 33.8 °F 27.7 °F 32.0 °F 93% 29.70 in 6.2 mi NW 6.9 mph - N/A   Overcast
1:58 AM 33.8 °F 27.7 °F 32.0 °F 93% 29.72 in 6.2 mi NW 6.9 mph - 0.00 in   Overcast
2:00 AM 33.8 °F 27.7 °F 32.0 °F 93% 29.69 in 6.2 mi NW 6.9 mph - N/A   Overcast
2:09 AM 33.8 °F 28.6 °F 32.0 °F 93% 29.70 in 6.2 mi NW 5.8 mph - N/A   Overcast
2:34 AM 33.8 °F 27.7 °F 32.0 °F 93% 29.70 in 6.2 mi West 6.9 mph - N/A   Overcast
2:58 AM 34.3 °F 28.4 °F 30.7 °F 87% 29.74 in 6.2 mi WNW 6.9 mph - N/A   Mostly Cloudy
3:36 AM 35.6 °F 28.0 °F 30.2 °F 81% 29.71 in 6.2 mi WNW 10.4 mph - N/A   Mostly Cloudy
3:58 AM 35.2 °F 29.5 °F 28.9 °F 78% 29.74 in 6.2 mi NW 6.9 mph 17.3 mph N/A   Scattered Clouds
4:20 AM 35.6 °F 30.7 °F 30.2 °F 81% 29.72 in 6.2 mi WNW 5.8 mph - N/A   Overcast
4:35 AM 35.6 °F 28.6 °F 28.4 °F 75% 29.72 in 6.2 mi WNW 9.2 mph - N/A   Overcast
4:58 AM 35.2 °F 27.1 °F 28.2 °F 76% 29.76 in 6.2 mi WNW 11.5 mph - N/A   Mostly Cloudy
5:58 AM 34.5 °F 30.4 °F 28.9 °F 80% 29.78 in 6.2 mi WNW 4.6 mph - N/A   Mostly Cloudy
6:58 AM 34.5 °F 27.9 °F 29.3 °F 81% 29.79 in 6.2 mi NW 8.1 mph - N/A   Partly Cloudy
7:45 AM 33.8 °F 27.7 °F 28.4 °F 81% 29.77 in 6.2 mi West 6.9 mph - N/A   Mostly Cloudy
7:54 AM 32.0 °F 27.5 °F 30.2 °F 93% 29.77 in 6.2 mi SSW 4.6 mph - N/A   Mostly Cloudy
7:58 AM 33.3 °F 30.2 °F 29.5 °F 86% 29.80 in 6.2 mi SW 3.5 mph - 0.00 in   Mostly Cloudy
8:23 AM 33.8 °F 27.7 °F 30.2 °F 87% 29.78 in 6.2 mi West 6.9 mph - N/A Rain Light Rain
8:24 AM 35.6 °F 29.9 °F 30.2 °F 81% 29.78 in 6.2 mi West 6.9 mph - N/A Rain Light Rain
8:39 AM 35.6 °F 28.6 °F 32.0 °F 87% 29.78 in 6.2 mi West 9.2 mph - N/A   Overcast
8:46 AM 35.6 °F 27.5 °F 32.0 °F 87% 29.78 in 6.2 mi West 11.5 mph - N/A Rain Light Rain
8:55 AM 35.6 °F 29.2 °F 32.0 °F 87% 29.78 in 6.2 mi West 8.1 mph - N/A   Overcast
8:58 AM 34.7 °F 27.5 °F 31.3 °F 87% 29.81 in 6.2 mi West 9.2 mph - 0.00 in   Overcast
9:00 AM 35.6 °F 28.0 °F 32.0 °F 87% 29.78 in 6.2 mi West 10.4 mph - N/A   Overcast
9:01 AM 35.6 °F 28.6 °F 32.0 °F 87% 29.79 in 6.2 mi West 9.2 mph - N/A   Overcast
9:03 AM 35.6 °F 28.6 °F 32.0 °F 87% 29.79 in 6.2 mi West 9.2 mph - N/A   Overcast
9:09 AM 35.6 °F 28.0 °F 32.0 °F 87% 29.79 in 6.2 mi West 10.4 mph - N/A Rain Light Rain
9:22 AM 33.8 °F 27.7 °F 32.0 °F 93% 29.79 in 6.2 mi West 6.9 mph - N/A   Overcast
9:44 AM 35.6 °F 28.6 °F 32.0 °F 87% 29.80 in 6.2 mi West 9.2 mph - N/A   Overcast
9:46 AM 35.6 °F 29.2 °F 32.0 °F 87% 29.80 in 6.2 mi West 8.1 mph - N/A Rain Light Rain
9:56 AM 35.6 °F 29.2 °F 32.0 °F 87% 29.80 in 6.2 mi West 8.1 mph - N/A   Overcast
9:58 AM 35.6 °F 28.0 °F 32.0 °F 87% 29.83 in 6.2 mi West 10.4 mph - 0.00 in   Overcast
10:00 AM 35.6 °F 28.6 °F 30.2 °F 81% 29.80 in 6.2 mi West 9.2 mph - N/A   Overcast
10:08 AM 35.6 °F 28.6 °F 32.0 °F 87% 29.80 in 6.2 mi West 9.2 mph - N/A   Overcast
10:14 AM 35.6 °F 28.0 °F 32.0 °F 87% 29.80 in 6.2 mi West 10.4 mph - N/A   Mostly Cloudy
10:24 AM 35.6 °F 28.0 °F 32.0 °F 87% 29.80 in 6.2 mi West 10.4 mph - N/A   Overcast
10:31 AM 35.6 °F 28.0 °F 32.0 °F 87% 29.81 in 6.2 mi West 10.4 mph - N/A Rain Light Rain
10:41 AM 35.6 °F 29.2 °F 32.0 °F 87% 29.81 in 6.2 mi West 8.1 mph - N/A Snow Light Snow
10:45 AM 33.8 °F 26.4 °F 32.0 °F 93% 29.81 in 6.2 mi WNW 9.2 mph - N/A Snow Light Snow
10:55 AM 32.0 °F 25.6 °F 32.0 °F 100% 29.81 in 5.0 mi WNW 6.9 mph - N/A Snow Light Snow
10:58 AM 33.6 °F 28.4 °F 31.8 °F 93% 29.84 in 5.6 mi WNW 5.8 mph - 0.01 in Snow Light Snow
11:07 AM 33.8 °F 29.6 °F 32.0 °F 93% 29.82 in 6.2 mi NW 4.6 mph - N/A Snow Light Snow
11:09 AM 35.6 °F 30.7 °F 32.0 °F 87% 29.82 in 6.2 mi NNW 5.8 mph - N/A Rain Light Rain
11:36 AM 37.4 °F 32.1 °F 32.0 °F 81% 29.82 in 6.2 mi WNW 6.9 mph - N/A   Mostly Cloudy
11:58 AM 38.7 °F 31.8 °F 30.0 °F 71% 29.85 in 6.2 mi NW 10.4 mph - 0.00 in   Overcast
12:02 PM 37.4 °F 30.3 °F 30.2 °F 75% 29.82 in 6.2 mi NW 10.4 mph - N/A   Overcast
12:06 PM 37.4 °F 31.4 °F 30.2 °F 75% 29.82 in 6.2 mi NW 8.1 mph - N/A   Overcast
12:07 PM 37.4 °F 31.4 °F 30.2 °F 75% 29.82 in 6.2 mi NW 8.1 mph - N/A Rain Light Rain
12:16 PM 37.4 °F 29.8 °F 30.2 °F 75% 29.83 in 6.2 mi WNW 11.5 mph - N/A   Overcast
12:22 PM 37.4 °F 30.3 °F 30.2 °F 75% 29.83 in 6.2 mi WNW 10.4 mph - N/A Rain Light Rain
12:31 PM 37.4 °F 29.8 °F 30.2 °F 75% 29.83 in 6.2 mi WNW 11.5 mph - N/A   Mostly Cloudy
12:42 PM 37.4 °F 30.8 °F 30.2 °F 75% 29.83 in 6.2 mi WNW 9.2 mph - N/A   Overcast
12:58 PM 36.9 °F 32.2 °F 29.7 °F 75% 29.86 in 6.2 mi WNW 5.8 mph - 0.00 in   Mostly Cloudy
1:58 PM 38.1 °F 30.7 °F 28.4 °F 68% 29.86 in 6.2 mi WNW 11.5 mph - N/A   Scattered Clouds
2:58 PM 40.8 °F 32.9 °F 28.2 °F 61% 29.86 in 6.2 mi NNW 15.0 mph - N/A   Scattered Clouds
3:58 PM 38.8 °F 32.1 °F 27.9 °F 65% 29.86 in 6.2 mi WNW 10.4 mph - N/A   Clear
4:58 PM 37.8 °F 30.7 °F 28.6 °F 69% 29.87 in 6.2 mi WNW 10.4 mph - N/A   Partly Cloudy
5:58 PM 35.4 °F 29.0 °F 28.4 °F 76% 29.88 in 6.2 mi West 8.1 mph - N/A   Partly Cloudy
6:58 PM 34.0 °F 29.8 °F 29.1 °F 82% 29.88 in 6.2 mi West 4.6 mph - N/A   Overcast
7:58 PM 33.4 °F 28.1 °F 30.2 °F 88% 29.89 in 6.2 mi West 5.8 mph - N/A   Overcast
8:08 PM 32.0 °F 26.4 °F 32.0 °F 100% 29.86 in 6.2 mi West 5.8 mph - N/A   Overcast
8:32 PM 32.0 °F 27.5 °F 32.0 °F 100% 29.86 in 6.2 mi Variable 4.6 mph - N/A   Mostly Cloudy
8:44 PM 32.0 °F 26.4 °F 32.0 °F 100% 29.87 in 6.2 mi West 5.8 mph - N/A   Overcast
8:47 PM 32.0 °F 27.5 °F 32.0 °F 100% 29.87 in 6.2 mi West 4.6 mph - N/A   Overcast
8:58 PM 32.7 °F 29.6 °F 31.5 °F 95% 29.90 in 6.2 mi West 3.5 mph - N/A   Overcast
9:13 PM 32.0 °F 26.4 °F 32.0 °F 100% 29.87 in 6.2 mi West 5.8 mph - N/A   Overcast
9:21 PM 32.0 °F 27.5 °F 32.0 °F 100% 29.87 in 6.2 mi West 4.6 mph - N/A   Overcast
9:23 PM 32.0 °F 28.7 °F 32.0 °F 100% 29.87 in 6.2 mi West 3.5 mph - N/A   Overcast
9:34 PM 32.0 °F - 32.0 °F 100% 29.87 in 6.2 mi West 2.3 mph - N/A   Overcast
9:37 PM 32.0 °F - 32.0 °F 100% 29.87 in 6.2 mi West 2.3 mph - N/A   Overcast
9:51 PM 32.0 °F 27.5 °F 32.0 °F 100% 29.87 in 6.2 mi WSW 4.6 mph - N/A   Mostly Cloudy
9:54 PM 32.0 °F 27.5 °F 32.0 °F 100% 29.87 in 6.2 mi WSW 4.6 mph - N/A   Scattered Clouds
9:58 PM 32.2 °F 27.7 °F 30.9 °F 95% 29.90 in 6.2 mi WSW 4.6 mph - 0.00 in   Scattered Clouds
10:32 PM 32.0 °F - 32.0 °F 100% 29.87 in 6.2 mi West 2.3 mph - N/A   Overcast
10:46 PM 32.0 °F 28.7 °F 32.0 °F 100% 29.87 in 6.2 mi West 3.5 mph - N/A   Overcast
10:56 PM 32.0 °F 26.4 °F 32.0 °F 100% 29.87 in 6.2 mi WSW 5.8 mph - N/A   Overcast
10:58 PM 32.0 °F 26.4 °F 32.0 °F 100% 29.90 in 6.2 mi WSW 5.8 mph - 0.00 in   Mostly Cloudy
11:01 PM 32.0 °F 26.4 °F 32.0 °F 100% 29.87 in 6.2 mi West 5.8 mph - N/A   Mostly Cloudy
11:38 PM 32.0 °F 26.4 °F 32.0 °F 100% 29.87 in 6.2 mi West 5.8 mph - N/A   Mostly Cloudy
11:47 PM 32.0 °F 28.7 °F 32.0 °F 100% 29.88 in 6.2 mi West 3.5 mph - N/A Snow Light Snow
11:55 PM 32.0 °F 27.5 °F 32.0 °F 100% 29.87 in 6.2 mi WNW 4.6 mph - N/A Snow Light Snow
11:58 PM 32.5 °F 27.1 °F 30.9 °F 94% 29.90 in 6.2 mi WNW 5.8 mph - 0.00 in Snow Light Snow